This is the latest recevied weather packets stored in our database for station/object K4MZ. If no packets are shown the sender has not sent any weather packets the latest 10 day(s).
| Time | Temp. | Humidity | Pressure | Rain* | Wind** | Luminosity | Snow |
|---|---|---|---|---|---|---|---|
| 1778157342 | 17.22° C | 96% | 1010.8 hPa | 0 mm | - | 29 W/m² | - |
| 1778156762 | 17.22° C | 96% | 1010.3 hPa | 0 mm | - | 30 W/m² | - |
| 1778156122 | 17.22° C | 96% | 1010.6 hPa | 0 mm | - | 22 W/m² | - |
| 1778155543 | 17.22° C | 96% | 1010.6 hPa | 0 mm | - | 17 W/m² | - |
| 1778154923 | 17.22° C | 96% | 1010.6 hPa | 0 mm | - | 10 W/m² | - |
| 1778154383 | 17.22° C | 96% | 1010.6 hPa | 0 mm | - | 10 W/m² | - |
| 1778153723 | 17.22° C | 96% | 1010.4 hPa | 0 mm | - | 8 W/m² | - |
| 1778153123 | 17.22° C | 96% | 1010.2 hPa | 0 mm | - | 24 W/m² | - |
| 1778152544 | 16.67° C | 96% | 1010.3 hPa | 0 mm | - | 11 W/m² | - |
| 1778151924 | 16.67° C | 96% | 1010.5 hPa | 0 mm | - | 6 W/m² | - |
| 1778151344 | 16.67° C | 96% | 1010.5 hPa | 0 mm | - | 2 W/m² | - |
| 1778150724 | 16.67° C | 96% | 1010.2 hPa | 0 mm | - | 6 W/m² | - |
| 1778150124 | 17.22° C | 96% | 1010.2 hPa | 0.25 mm | - | 2 W/m² | - |
| 1778149605 | 17.22° C | 96% | 1010 hPa | 0.25 mm | - | 1 W/m² | - |
| 1778148965 | 17.22° C | 96% | 1009.9 hPa | 0.25 mm | - | 0 W/m² | - |
| 1778148365 | 17.22° C | 96% | 1009.7 hPa | 0.25 mm | - | 0 W/m² | - |
| 1778147787 | 17.22° C | 96% | 1009.2 hPa | 0.25 mm | - | 0 W/m² | - |
| 1778147125 | 16.67° C | 96% | 1009.6 hPa | 0.25 mm | - | 0 W/m² | - |
| 1778146525 | 17.22° C | 96% | 1009.8 hPa | 0 mm | - | 0 W/m² | - |
| 1778145925 | 17.22° C | 96% | 1009.8 hPa | 0 mm | - | 0 W/m² | - |
| 1778145326 | 17.22° C | 95% | 1010.5 hPa | 0 mm | - | 0 W/m² | - |
| 1778144726 | 17.22° C | 95% | 1010.2 hPa | 0 mm | - | 0 W/m² | - |
| 1778144126 | 17.22° C | 95% | 1009.9 hPa | 0 mm | - | 0 W/m² | - |
* Rain latest hour (hover to see other rain measurements)
** Current wind speed in m/s (hover to see current wind gust speed)